Back to catalog

STARLINK-5921

AliveCommunicationsVLEO
NORAD 55926·PAYLOAD·🇺🇸 United States

Launched Mar 17, 2023 from Vandenberg Space Force Base

Loading…

Next Passes (next 24 hours)

TLE

FreshSource: CelesTrak SupGP

Epoch: Sep 14, 2026, 22:18 UTC

1 55926C 23037N   26257.92965278  .00467210  00000+0  37447-1 0  2574
2 55926  70.0006 167.4319 0003058 269.8518  90.1089 14.99811529    15

Track STARLINK-5921 in real time with AllMySat

Download on the App Store